Tracking 29059 objects as of 18-Jun-2024
HD Live streaming from Space Station
objects crossing your sky now

STARLINK-1109

Track STARLINK-1109 now!
10-day predictions
STARLINK-1109 is classified as:


NORAD ID: 44945
Int'l Code: 2020-001AH
Perigee: 553.5 km
Apogee: 555.2 km
Inclination: 53.1 °
Period: 95.6 minutes
Semi major axis: 6925 km
RCS: Unknown
Launch date: January 7, 2020
Source: United States (US)
Launch site: AIR FORCE EASTERN TEST RANGE (AFETR)
Your satellite tracking list
Your tracking list is empty




NASA's NSSDC Master Catalog

Two Line Element Set (TLE):
1 44945U 20001AH  24169.48120494 -.00002903  00000-0 -17615-3 0  9992
2 44945  53.0536 275.7312 0001240  92.4606 267.6525 15.06387066245131
Source of the keplerian elements: AFSPC